Bodensee (Kressbronn): 6,7°C  -  Teich der Wetterzentrale Bad Schussenried: 5,6°C |  Schneehöhe Kreuzthal-Steinberg (930 m ü. NN): 8 cm   
01.04.2020Höhe
ü. NN
ZeitTemperatur (°C)Nieder-
schlag
Luft-
feuchte
Luft-
druck
Wind
StationaktuellMinimumMaximumaktuellMaximum
Aldingen654 m07:01-5,3-5,4 (08:00)-0,3 (16:02)0,0 l/m²82%1023,30,0 km/h (0 Bft) W29,6 km/h (5 Bft) W (14:48)
Allmendingen541 m07:00-6,6-6,6 (08:00)-2,1 (15:10)0,0 l/m²87%1023,11,6 km/h (1 Bft) NO35,4 km/h (5 Bft) O (15:35)
Altshausen574 m07:00-3,9-4,1 (06:33)-1,1 (00:16)0,0 l/m²67%1020,54,8 km/h (1 Bft) N11,3 km/h (2 Bft) N (06:10)
Amstetten-Reutti663 m07:00-4,7-4,7 (07:00)-1,5 (16:55)0,0 l/m²86%1022,74,8 km/h (1 Bft) W-SW48,3 km/h (6 Bft) W (15:55)
Amtzell-Grenis677 m07:00-2,8-4,1 (06:05)-1,4 (00:00)0,0 l/m²60%1022,38,0 km/h (2 Bft) N-NO12,9 km/h (3 Bft) N (06:45)
Aulendorf570 m07:00-3,1-3,1 (06:48)-0,5 (00:00)0,0 l/m²72%1021,69,7 km/h (2 Bft) N-NO14,5 km/h (3 Bft) O-NO (05:13)
Bad Krozingen233 m07:00-2,2-2,3 (06:50)3,7 (16:05)0,0 l/m²78%1023,31,7 km/h (1 Bft) SO38,1 km/h (5 Bft) N (17:05)
Bad Saulgau595 m07:00-5,1-5,2 (08:00)-1,9 (15:00)0,0 l/m²88%1021,46,4 km/h (2 Bft) S25,7 km/h (4 Bft) S (11:35)
Bad Saulgau, Mannsgrab588 m06:58-4,5-6,1 (05:34)-1,7 (00:17)0,0 l/m²86%1024,00,0 km/h (0 Bft) N0,0 km/h (0 Bft) N (00:00)
Bad Saulgau-Lampertsweiler627 m07:00-4,2-4,8 (06:15)0,2 (00:00)0,0 l/m²81%1024,68,0 km/h (2 Bft) N-NW22,5 km/h (4 Bft) N-NW (01:15)
Bad Schussenried572 m07:00-4,2-4,2 (06:45)-1,1 (00:00)0,0 l/m²87%1021,00,0 km/h (0 Bft) NO9,7 km/h (2 Bft) NO (03:15)
Bergatreute615 m01:45-0,7-0,7 (00:45)0,0 (00:00)0,0 l/m²77%1023,512,9 km/h (3 Bft) NO16,1 km/h (3 Bft) O-NO (01:40)
Biberach (Riss), Boehringer533 m07:00-4,3-4,4 (07:00)-1,1 (00:30)0,0 l/m²90%1021,84,7 km/h (1 Bft) N-NW11,9 km/h (3 Bft) N (03:00)
Biberach (Riss), Realschule553 m07:00-4,2-4,2 (06:55)-0,3 (00:00)0,0 l/m²88%1023,612,9 km/h (3 Bft) N-NW12,9 km/h (3 Bft) N (06:05)
Burgrieden523 m07:00-4,3-4,3 (07:00)-0,4 (00:00)0,0 l/m²82%1022,70,0 km/h (0 Bft) O-NO4,8 km/h (1 Bft) O-NO (02:50)
Burgrieden-Hochstetten510 m06:55-4,8-4,8 (07:00)-0,9 (15:40)0,0 l/m²89%1023,10,0 km/h (0 Bft) N-NO25,7 km/h (4 Bft) NO (12:55)
Ebersbach579 m07:00-3,8-3,8 (05:55)-0,1 (00:00)0,0 l/m²86%1023,06,4 km/h (2 Bft) N-NW16,1 km/h (3 Bft) NO (01:25)
Ebersbach-Boos605 m07:00-4,4-4,5 (06:50)-0,1 (00:00)0,0 l/m²89%1022,819,3 km/h (3 Bft) O-NO22,5 km/h (4 Bft) O (01:00)
Ebersbach-Menzenweiler661 m07:00-3,8-3,9 (06:20)-0,6 (00:00)0,0 l/m²88%1022,720,9 km/h (4 Bft) NO24,1 km/h (4 Bft) O-NO (01:05)
Ehingen535 m01:10-2,5-2,5 (01:10)-1,3 (00:05)0,0 l/m²70%1025,40,0 km/h (0 Bft) N-NO5,0 km/h (1 Bft) N-NO (00:15)
Erlenmoos645 m07:00-4,1-4,1 (07:00)-0,9 (00:00)0,0 l/m²86%1022,66,4 km/h (2 Bft) NO12,9 km/h (3 Bft) O-NO (01:35)
Ertingen569 m07:00-3,7-3,7 (06:55)-0,6 (00:00)0,0 l/m²84%1022,66,4 km/h (2 Bft) N16,1 km/h (3 Bft) N-NO (04:10)
Friedrichshafen405 m06:55-1,8-1,8 (07:00)0,9 (13:30)0,0 l/m²79%1022,511,3 km/h (2 Bft) NO27,4 km/h (4 Bft) NO (15:10)
Günzburg443 m07:00-5,0-5,0 (06:55)-1,1 (00:00)0,0 l/m²88%1020,70,0 km/h (0 Bft) NO0,0 km/h (0 Bft) NO (00:00)
Hochdorf-Appendorf537 m07:00-5,4-5,8 (06:05)-1,7 (00:15)0,0 l/m²66%1022,58,0 km/h (2 Bft) N-NO14,5 km/h (3 Bft) N-NW (03:20)
Höchsten802 m07:00-4,5-4,5 (07:00)-1,4 (00:00)0,0 l/m²84%1020,222,5 km/h (4 Bft) N-NO25,7 km/h (4 Bft) NO (02:45)
Horgenzell618 m07:00-1,9-1,9 (03:45)-0,6 (00:05)0,0 l/m²76%1020,04,8 km/h (1 Bft) N-NO19,3 km/h (3 Bft) N-NO (00:50)
Hoßkirch632 m07:00-6,3-6,6 (06:20)-1,0 (00:15)0,0 l/m²89%1021,50,0 km/h (0 Bft) O-SO14,5 km/h (3 Bft) O-NO (00:20)
Isny, Am Dreifingerbach695 m07:00-5,8-6,2 (06:25)0,1 (01:00)0,0 l/m²87%1021,31,6 km/h (1 Bft) NW14,5 km/h (3 Bft) O-NO (01:05)
Isny, Weidachweg706 m07:00-5,0-5,1 (07:00)0,3 (00:25)0,0 l/m²78%1023,60,0 km/h (0 Bft) W12,9 km/h (3 Bft) W (00:10)
Kappel-Grafenhausen163 m06:55-1,9-1,9 (07:00)3,3 (14:55)0,0 l/m²79%1021,10,0 km/h (0 Bft) N30,6 km/h (5 Bft) N-NO (16:55)
Kißlegg-Staibshof709 m07:00-3,7-3,7 (07:00)-0,9 (00:00)0,0 l/m²82%1022,36,4 km/h (2 Bft) NO14,5 km/h (3 Bft) O (01:50)
Kressbronn398 m07:00-2,6-2,6 (06:58)1,4 (00:00)0,0 l/m²78%1021,10,0 km/h (0 Bft) NO22,5 km/h (4 Bft) NO (00:54)
Kreuzthal-Steinberg-Alpe930 m07:00-4,7-4,9 (06:50)-2,5 (00:00)0,0 l/m²88%1022,02,2 km/h (1 Bft) W-SW22,0 km/h (4 Bft) W-NW (00:10)
Kreuzthal-Steinberggipfel1040 m06:50-3,6-4,0 (02:20)-3,1 (00:10)-73%1022,012,6 km/h (3 Bft) O37,1 km/h (5 Bft) O-SO (00:10)
Kristberg im Montafon (AT)1425 m07:00-6,0-6,6 (04:51)-5,3 (00:40)0,0 l/m²55%1026,40,0 km/h (0 Bft) N10,1 km/h (2 Bft) NO (01:47)
Laupheim500 m07:00-3,9-4,0 (06:35)0,0 (00:00)0,0 l/m²83%1022,26,4 km/h (2 Bft) N-NO9,7 km/h (2 Bft) O-SO (00:20)
Leutkirch-Heggelbach670 m07:00-4,8-4,9 (07:00)-2,6 (00:30)0,0 l/m²87%1021,64,8 km/h (1 Bft) N8,0 km/h (2 Bft) N-NO (03:30)
Lindau-Insel420 m07:00-1,4-1,4 (08:00)1,8 (14:55)0,0 l/m²74%1021,50,0 km/h (0 Bft) O-NO29,0 km/h (5 Bft) NO (17:05)
Lindau-Stadt412 m07:00-2,4-2,4 (08:00)1,2 (14:55)0,0 l/m²77%1021,70,0 km/h (0 Bft) NO33,8 km/h (5 Bft) N-NO (15:40)
Maierhöfen im Allgäu733 m07:00-5,0-5,0 (07:00)-1,2 (01:35)0,0 l/m²79%1021,80,0 km/h (0 Bft) NW25,7 km/h (4 Bft) O-SO (02:05)
Maselheim543 m07:00-5,3-5,3 (08:00)-2,3 (13:20)0,0 l/m²87%1023,00,0 km/h (0 Bft) N24,1 km/h (4 Bft) O-NO (15:20)
Maselheim-Sulmingen548 m07:00-5,3-5,5 (06:50)-2,2 (15:15)0,0 l/m²90%1024,20,0 km/h (0 Bft) NW20,9 km/h (4 Bft) N-NO (12:15)
Mietingen-Baltringen528 m07:00-4,9-5,0 (06:35)-1,3 (00:45)0,0 l/m²87%1024,50,0 km/h (0 Bft) O-NO4,8 km/h (1 Bft) N-NO (01:20)
Mindelheim-Apfeltrach620 m06:56-5,9-5,9 (06:51)-2,7 (00:00)0,0 l/m²87%1024,00,0 km/h (0 Bft) NO0,0 km/h (0 Bft) O-NO (00:00)
Mittelbiberach577 m07:01-4,5-4,6 (06:56)-1,0 (00:16)0,0 l/m²85%1023,71,6 km/h (1 Bft) O12,8 km/h (3 Bft) NO (05:56)
Neresheim552 m07:00-7,3-7,3 (07:00)-2,0 (00:00)0,0 l/m²91%1021,70,0 km/h (0 Bft) O4,0 km/h (1 Bft) NO (01:00)
Neukirch570 m07:00-3,2-3,2 (08:00)-0,9 (14:35)0,0 l/m²81%1021,96,4 km/h (2 Bft) N-NO37,0 km/h (5 Bft) N-NO (11:55)
Ochsenhausen, Birkenstraße613 m07:00-5,7-5,7 (08:00)-2,2 (12:50)0,0 l/m²82%1023,10,0 km/h (0 Bft) NO1,6 km/h (1 Bft) SW (08:00)
Ochsenhausen, Unt. Wiesen575 m07:00-5,7-5,7 (06:15)-2,4 (00:00)0,0 l/m²88%1024,30,0 km/h (0 Bft) NO4,8 km/h (1 Bft) NO (00:00)
Opfenbach-Göritz561 m07:01-5,3-5,3 (06:59)-2,8 (00:00)0,0 l/m²77%1019,90,0 km/h (0 Bft) N-NO6,5 km/h (2 Bft) O-NO (00:18)
Ostrach619 m07:00-3,8-3,8 (04:15)-0,6 (00:00)0,0 l/m²89%1021,04,8 km/h (1 Bft) N-NW12,9 km/h (3 Bft) N-NW (06:30)
Ravensburg, Goethestraße428 m07:00-2,1-2,1 (07:00)1,3 (00:00)0,0 l/m²81%1021,716,1 km/h (3 Bft) NO17,7 km/h (3 Bft) NO (06:45)
Ravensburg-Wernsreute511 m07:00-3,4-3,4 (07:00)0,0 (15:50)0,0 l/m²83%1024,617,7 km/h (3 Bft) N-NW35,4 km/h (5 Bft) N-NO (11:45)
Reichenbach an der Fils343 m07:00-2,4-2,4 (06:55)1,0 (00:00)0,0 l/m²78%1025,21,6 km/h (1 Bft) SO12,9 km/h (3 Bft) O-SO (05:10)
Riedlingen530 m07:00-3,5-3,5 (06:50)-1,0 (00:00)0,0 l/m²82%1022,90,0 km/h (0 Bft) O-NO0,0 km/h (0 Bft) N (00:00)
Rißtissen489 m07:00-3,4-3,4 (06:50)-0,2 (00:00)0,0 l/m²85%1020,50,0 km/h (0 Bft) O-NO8,0 km/h (2 Bft) O-NO (03:30)
Rottweil-Hausen681 m06:58-4,7-4,7 (06:55)-1,9 (00:00)0,0 l/m²83%1023,66,5 km/h (2 Bft) N-NO6,5 km/h (2 Bft) N (02:14)
Schemmerhofen520 m07:002,72,7 (00:00)2,7 (00:00)0,0 l/m²55%1021,70,0 km/h (0 Bft) NO0,0 km/h (0 Bft) NO (00:00)
Silbertal im Montafon (AT)884 m07:01-4,5-4,5 (06:59)-1,6 (00:01)0,0 l/m²84%1026,20,0 km/h (0 Bft) O-NO0,0 km/h (0 Bft) O-NO (00:00)
Tettnang466 m06:59-1,8-1,8 (06:56)1,0 (00:00)0,0 l/m²73%1021,63,2 km/h (1 Bft) N16,2 km/h (3 Bft) O-SO (01:07)
Tuttlingen648 m06:51-4,3-4,5 (06:31)-2,1 (00:01)0,0 l/m²76%1023,40,0 km/h (0 Bft) S-SO5,2 km/h (1 Bft) W-SW (03:26)
Tuttlingen, Möhringer-Vorstadt711 m07:00-4,4-4,6 (08:00)-2,4 (16:05)0,0 l/m²83%1022,50,0 km/h (0 Bft) O-NO25,7 km/h (4 Bft) N-NW (12:35)
Ummendorf547 m07:00-4,2-4,8 (06:30)-0,7 (00:10)0,0 l/m²69%1023,80,0 km/h (0 Bft) O-NO16,1 km/h (3 Bft) O (01:05)
Ummendorf-Fischbach558 m07:00-4,8-5,4 (06:15)-1,9 (01:25)0,0 l/m²70%1023,50,0 km/h (0 Bft) O4,8 km/h (1 Bft) O (04:20)
Waldburg707 m07:00-3,3-3,5 (06:50)-0,8 (00:00)0,0 l/m²80%1021,49,7 km/h (2 Bft) N19,3 km/h (3 Bft) N (02:35)
Waltenhofen im Allgäu720 m06:55-7,6-7,6 (06:55)-2,2 (01:05)0,0 l/m²90%1022,40,0 km/h (0 Bft) W17,7 km/h (3 Bft) W (11:50)
Wangen, Südring548 m07:01-4,2-4,2 (06:51)-0,3 (00:00)0,0 l/m²85%1021,56,5 km/h (2 Bft) N13,0 km/h (3 Bft) NO (01:25)
Warthausen-Birkenhard581 m06:59-4,4-4,4 (06:32)-1,2 (00:00)0,0 l/m²86%1023,410,1 km/h (2 Bft) N13,7 km/h (3 Bft) NO (06:13)
Winterlingen785 m07:00-5,2-5,6 (06:30)-2,8 (01:00)0,0 l/m²82%1022,12,5 km/h (1 Bft) NO3,6 km/h (1 Bft) NO (00:55)

Werbung
niederschlagsdatenbank | info | login - erfassung

Sollten Sie Interesse haben, an der Niederschlagsdatenbank teilzunehmen, finden Sie > hier < weitere Informationen.

Niederschlagsdaten der Station Günzburg - Erlenbadweg 34 1/2

Dr.med. Eugen Knöpfle

Niederschlagsstation aufgenommen ins Stationsnetz der Wetterwarte Süd am 30.06.2009
Monat: .
Anmerkung:0,0 = nicht messbarer Niederschlag
 -  = kein Niederschlag

Stationsdaten

Höhe

464 m

Lage

Auf Google Maps ansehen

Beschreibung

Ostrand des Zentrums von Günzburg, Luftlinie ca. 500 m zur Stadtmitte (Marktplatz), ganz leicht hügelig, vorwiegend Wohnbebauung, daneben kleiner Park (Am Weiher)
< November 2010Januar 2011 >

Dezember 2010

TagNiederschlagBemerkung
01.11,0
02.-
am 2.12. wenige Schneeflocken
Schneehöhe: 10 cm
03.-
Schneehöhe: 9 cm
04.-
05.15,0
Schneeregen
Schneehöhe: 7 cm
06.34,0
Schneehöhe: 16 cm
07.6,0
Regen
Schneehöhe: 10 cm
08.4,0
Schneehöhe: 5 cm
09.3,0
Schnee
Schneehöhe: Reste
10.3,0
Schneeregen
Schneehöhe: 6 cm
11.2,0
Regen
Schneehöhe: 5 cm
12.4,0
Schneehöhe: Reste
13.-
Schneehöhe: unter 1
14.1,0
Schneehöhe: unter 1
15.5,0
Schneehöhe: 3 cm
16.2,0
Schnee
Schneehöhe: 6 cm
17.1,0
Schneehöhe: 9 cm
18.1,0
Schnee
Schneehöhe: 9 cm
19.-
Regen
Schneehöhe: 9 cm
20.12,0
Schneehöhe: 5 cm
21.3,0
Regen
Schneehöhe: 5 cm
22.1,0
Schneehöhe: 4 cm
23.2,0
Regen
Schneehöhe: 3 cm
24.20,0
Schneehöhe: 2 cm
25.1,0
Schneehöhe: 12 cm
26.0,5
Schneehöhe: 12 cm
27.-
Schneehöhe: 12 cm
28.2,0
Schneehöhe: 11 cm
29.0,5
Schneehöhe: 12 cm
30.-
Schneehöhe: 12 cm
31.-
Schneehöhe: 11 cm
Gesamt:134,0 
Die Spalten "Tag" und "Niederschlag" lassen sich durch Klicken auf den Spaltenkopf sortieren.
Die Angaben sind in l/m².

< November 2010Januar 2011 >


Monats- und Jahresniederschlag


Wetterbeobachtungen Legende:

  • Regen
  • Nieselregen
  • Schneeregen
  • Schnee
  • Graupel
  • Eiskörner
  • Hagel
  • Bodennebel
  • Gewitter
  • Nebelnässe
  • Schneegriesel

Grafische Darstellung der Niederschläge der Station Günzburg Dezember 2010

 
wetterstationen
wetterstationen
- derzeit 83 Stationen
niederschlagsdatenbank
wetterstationen
- kartographische Darstellung
niederschlagsdatenbank
niederschlagsstationen
- derzeit 112 Stationen
niederschlagsdatenbank
niederschlagsstationen
- kartographische Darstellung
 
  treffpunkt & service
--- Anzeigen --------------------------------
zugriffe:
insgesamt: 46.623.592
aktueller monat: 781
heute: 781
momentan online: 61
 
 
monatshöchstwert: 653.625
vorheriger monat: 364.213
gestern: 13.565
tageshöchstwert: 57.073
 
wetterwarte süd
 
konradstraße 3
info@wetterwarte-sued.com
roland roth
 
88427 bad schussenried